Wind_Speed
37 37 36 35 36 37 36 37 39 39 40 36 35 33 31 27 26 25 30 24 24 9 17 36 28 26 22 24 12 18 12 15 11 8 6 5 4 8 8 10 11 12 10 7 7 7 9 14 17 10 6 7 13 12
39 39 37 34 35 32 34 37 38 40 39 41 36 37 33 29 27 27 29 28 20 21 8 28 32 27 20 23 26 28 12 24 13 7 6 4 5 5 7 6 17 8 9 6 11 6 3 14 13 15 8 13 12 11
41 40 38 37 35 34 34 37 36 41 43 40 39 39 33 30 28 28 30 24 23 16 24 17 31 28 23 19 10 15 28 24 17 19 8 4 6 6 8 11 14 13 24 6 10 14 10 12 18 15 12 11 12 10
42 40 39 38 36 34 35 36 35 39 42 46 40 40 35 31 30 28 32 30 27 12 6 15 21 30 24 18 9 12 26 18 24 25 6 3 3 10 7 7 11 10 16 14 10 7 10 16 16 16 18 13 10 9
42 41 40 37 36 34 35 35 34 35 37 41 38 36 33 30 29 27 31 31 28 24 4 16 28 23 28 23 12 15 19 22 19 11 3 4 5 2 4 4 7 16 9 10 8 17 12 9 17 16 18 16 13 12
44 42 41 40 37 36 36 35 33 33 36 42 38 33 32 30 27 24 22 33 31 33 6 6 26 29 25 21 16 17 17 20 19 9 5 9 15 9 3 5 10 16 18 17 14 11 16 18 16 17 20 20 17 14
45 44 42 41 39 34 34 36 34 33 46 39 36 34 30 29 30 31 9 10 24 37 9 4 9 30 28 21 21 21 19 19 10 7 5 11 13 8 2 7 7 17 19 21 19 17 14 13 10 13 14 19 18 15
46 44 42 40 33 32 33 33 41 39 43 37 35 31 28 26 26 28 34 13 11 27 13 3 4 16 32 16 14 20 20 18 12 8 6 12 11 8 6 16 24 13 13 14 18 21 19 14 15 13 14 17 18 18
45 46 43 39 31 31 31 26 34 42 40 37 31 26 22 24 21 37 28 28 30 17 4 6 8 7 29 21 11 12 11 5 8 5 6 7 8 9 7 16 21 27 27 19 17 18 19 19 17 19 16 17 18 18
32 30 33 35 37 35 32 36 41 39 37 34 27 15 11 22 30 18 11 11 15 16 13 5 20 7 24 21 8 10 7 4 4 7 9 5 13 26 18 12 19 22 22 25 25 22 21 22 21 21 22 20 19 19
34 33 29 43 42 39 38 45 42 38 35 30 16 17 14 17 22 11 7 10 11 7 15 13 28 14 23 12 7 9 4 5 4 6 8 5 9 18 31 34 26 19 18 22 25 23 22 23 20 23 21 20 19 18
31 34 38 45 44 39 47 48 43 44 37 35 20 14 17 9 9 8 8 8 6 9 10 15 25 36 18 16 5 7 6 6 6 14 6 6 7 19 32 44 44 32 24 20 21 22 22 23 23 21 22 21 20 17
24 37 44 43 40 46 52 48 47 43 29 21 14 10 7 11 8 9 15 6 6 12 27 31 18 19 12 7 4 4 8 7 11 4 5 5 9 16 20 23 33 36 27 22 21 21 23 23 23 24 22 25 23 20
39 39 39 41 47 49 49 46 45 34 27 11 10 8 6 7 6 7 6 7 17 37 36 36 21 6 10 4 4 6 6 6 7 7 10 5 13 17 15 16 22 33 32 25 24 21 22 26 26 27 25 25 22 20
32 34 36 43 48 47 46 44 45 33 14 7 6 6 9 9 14 17 28 33 41 53 41 22 16 12 7 5 5 4 7 7 8 9 5 13 13 14 16 17 17 27 31 26 24 26 25 25 28 27 25 23 19 15
30 32 30 38 41 42 42 42 44 18 6 4 8 9 11 9 9 17 27 29 40 44 42 24 6 7 5 6 7 6 6 6 7 6 12 16 15 16 18 17 18 27 31 25 24 24 27 30 30 28 23 19 15 11
24 20 29 38 41 40 43 36 20 8 6 6 6 21 25 19 16 24 28 34 43 39 12 6 6 7 6 5 7 9 8 3 11 14 12 13 19 18 18 18 22 31 29 28 29 30 29 27 25 23 19 15 11 8
22 31 35 40 45 42 32 12 6 7 7 13 10 20 22 22 21 20 21 37 36 27 19 6 6 6 6 9 11 8 14 10 15 16 15 16 18 18 20 22 23 30 32 29 29 28 28 25 21 16 14 12 8 6
37 40 38 44 39 20 5 5 3 5 11 5 20 19 19 20 18 22 29 35 31 25 14 7 3 5 4 2 5 16 19 22 20 19 19 19 22 24 26 30 29 30 31 28 26 26 22 17 14 13 10 10 7 6
35 36 38 36 28 10 5 8 14 3 6 10 18 17 14 13 13 20 23 16 17 9 2 3 2 5 7 3 3 18 20 25 31 27 22 21 25 30 31 32 31 26 25 24 22 22 21 18 15 13 12 10 9 7
32 32 34 36 17 3 0 4 6 4 8 6 13 15 13 17 19 18 13 10 7 3 2 7 10 10 9 8 13 18 22 23 25 29 29 28 28 30 31 28 27 25 25 24 22 20 15 13 11 10 9 7 4 4
21 28 25 16 2 4 7 9 6 6 5 8 12 11 8 4 6 7 7 8 5 5 5 10 10 11 12 12 15 19 26 29 30 31 29 31 28 28 27 25 24 22 20 18 22 18 16 13 10 8 4 3 4 6
23 13 1 2 3 5 3 4 4 3 3 3 6 3 3 3 4 5 5 4 4 6 14 15 16 17 17 18 22 25 26 34 33 31 28 27 26 25 24 21 22 22 20 16 15 15 12 8 7 4 3 5 7 9
11 4 2 3 5 4 4 4 3 4 4 3 3 4 4 3 4 4 3 3 3 16 17 20 26 28 27 31 29 28 29 35 31 29 27 28 26 23 22 20 18 15 14 15 13 11 8 7 4 4 6 8 10 12
4 7 4 5 4 3 4 3 3 4 3 7 4 4 2 3 2 2 2 2 8 21 22 21 21 23 27 28 26 25 25 29 31 29 23 24 25 24 21 19 17 14 12 11 9 7 4 3 4 7 9 11 13 15
6 6 4 2 1 3 3 3 2 6 5 3 4 4 3 2 2 4 2 5 9 15 22 27 29 29 26 26 28 25 24 25 28 27 21 19 20 21 18 17 15 12 9 6 3 2 3 6 8 10 12 13 15 18
3 4 3 1 5 7 6 9 11 5 3 3 3 2 2 2 4 3 4 10 13 21 24 26 28 31 30 29 27 24 23 24 25 27 25 23 20 16 16 15 11 6 3 1 3 5 7 9 12 13 15 17 18 20
3 3 3 4 8 8 5 3 2 2 2 5 4 3 3 5 3 4 4 10 19 26 28 27 26 27 29 28 26 25 23 21 21 21 20 18 15 12 10 7 4 1 3 5 7 9 11 12 14 16 18 21 22 23
3 6 8 6 6 7 8 5 3 4 6 3 3 3 3 4 5 7 11 16 20 23 24 25 24 25 27 27 26 24 21 19 18 16 14 13 9 7 5 3 3 4 6 8 10 12 14 16 18 20 21 23 24 25
2 3 5 6 5 4 5 7 6 5 8 10 10 19 17 14 18 11 14 14 15 19 21 23 26 26 26 23 22 21 19 18 16 12 12 10 6 4 3 5 7 9 11 13 14 16 18 19 20 21 21 23 24 26
3 6 6 7 4 12 13 17 20 18 18 21 18 21 16 10 19 20 19 16 20 23 24 24 22 20 20 20 19 19 17 14 11 10 8 7 4 4 6 8 11 13 14 16 17 19 20 22 23 24 26 27 28 29
3 4 7 5 7 5 8 11 13 15 16 17 18 18 13 9 7 6 17 14 17 20 20 22 23 21 18 16 14 13 12 12 10 8 6 5 5 7 9 11 13 15 17 19 20 22 23 24 25 26 28 30 31 32
19 23 23 14 7 5 7 8 6 6 6 5 5 9 8 5 5 4 12 16 16 18 19 19 20 19 17 16 15 14 12 10 7 5 4 5 7 9 12 15 17 19 20 21 23 24 25 26 28 30 31 32 32 32
Wind_Direction
285 286 284 274 271 267 260 249 245 245 245 247 240 240 238 237 232 240 244 253 241 274 217 222 231 236 238 212 199 168 156 192 189 176 180 189 235 194 184 186 178 176 176 193 213 213 247 223 152 182 191 124 125 145
288 287 283 278 272 271 257 247 248 239 241 239 241 236 237 235 233 230 236 239 255 244 265 215 225 231 237 234 209 176 178 181 182 170 195 192 199 185 208 191 171 195 196 177 195 209 257 184 169 189 162 156 163 173
288 285 281 278 273 268 255 252 243 241 241 235 235 235 230 230 230 225 234 240 246 262 257 232 222 216 234 234 221 188 196 187 194 191 182 211 203 194 192 223 168 221 196 229 178 228 224 193 190 195 193 186 181 181
286 282 279 277 273 267 256 244 249 229 231 237 224 231 225 226 226 222 226 236 240 255 242 216 206 220 224 227 236 216 202 200 198 201 197 217 196 207 219 226 212 177 191 212 228 229 219 202 216 193 198 195 204 194
284 279 277 274 269 262 250 240 234 240 233 219 220 220 221 221 221 220 229 232 229 216 303 205 193 204 211 221 216 193 202 208 205 178 166 198 220 226 264 330 230 210 183 207 226 219 224 212 213 219 199 200 208 205
283 278 275 270 259 257 245 233 237 223 218 208 213 210 214 213 210 210 219 241 233 235 258 206 197 189 194 201 200 194 213 182 194 195 199 220 230 171 208 230 224 227 230 209 211 220 223 225 217 219 221 209 206 211
278 273 269 266 263 251 232 225 222 213 207 202 205 204 206 207 203 199 188 211 217 219 211 226 156 191 186 189 196 196 205 200 206 197 226 223 215 178 243 226 210 209 217 222 219 223 225 216 203 206 222 219 203 201
272 267 262 259 252 228 220 224 214 218 196 196 197 198 202 204 211 218 218 177 174 185 212 248 131 152 177 179 183 191 200 204 217 219 221 222 231 182 235 220 237 225 210 217 214 218 229 215 213 214 212 212 185 188
266 260 253 253 224 208 211 213 181 174 183 188 187 190 195 204 211 218 224 233 242 234 273 219 167 139 171 167 152 176 173 180 205 208 210 202 210 221 214 207 220 228 232 222 217 218 219 217 206 198 194 193 182 192
253 246 234 222 198 196 190 176 169 175 176 174 171 183 196 214 208 215 220 214 208 202 222 243 151 132 152 151 161 151 169 186 193 212 192 236 239 232 226 214 228 232 231 225 217 209 213 206 199 202 192 197 191 196
243 231 230 192 185 182 177 174 174 170 165 168 183 199 194 185 185 207 228 196 192 189 184 224 148 135 161 156 143 148 174 181 210 177 195 230 238 231 235 236 229 228 230 224 220 211 208 205 202 195 191 192 193 194
225 213 199 174 175 176 172 173 169 167 172 181 179 175 172 176 173 211 209 164 220 184 183 167 144 140 140 139 141 167 185 184 229 151 190 249 228 230 212 221 222 221 222 216 206 203 198 201 200 193 186 187 189 180
187 167 158 165 167 166 170 170 174 174 169 174 191 184 205 166 204 227 185 164 190 155 153 143 138 122 130 140 133 176 194 197 140 176 221 237 227 207 217 213 212 211 205 204 202 199 192 192 192 184 183 186 183 189
134 148 153 157 160 163 167 169 171 165 166 178 188 213 197 191 193 226 160 175 168 139 140 141 134 123 133 143 158 180 195 155 194 212 226 192 217 220 198 196 196 195 193 190 195 187 181 184 184 182 192 188 189 200
136 142 145 154 159 163 165 166 170 163 172 188 184 234 229 226 176 187 162 167 154 145 143 137 125 137 135 148 194 161 183 192 212 222 177 184 208 178 188 185 192 186 175 181 183 182 181 186 187 176 174 183 192 197
131 136 147 154 158 161 161 164 176 192 182 183 223 237 231 177 158 192 168 154 150 143 144 135 115 145 170 169 182 198 189 217 210 184 166 169 166 170 173 174 177 167 162 170 176 178 182 179 177 172 176 182 186 194
126 137 145 154 158 153 157 158 157 172 199 241 229 234 260 168 166 162 163 150 148 142 140 139 145 173 140 182 196 198 211 177 118 122 141 161 156 163 165 165 162 154 154 161 161 163 163 166 171 174 173 175 184 196
139 143 144 148 152 155 154 160 141 178 235 243 230 168 146 140 141 146 147 147 150 151 144 146 158 171 168 191 200 200 198 141 125 125 135 147 149 154 156 144 148 152 150 159 166 166 165 161 161 161 176 174 173 172
143 145 154 155 149 140 107 171 217 231 233 283 98 109 116 124 132 144 154 157 157 151 130 129 153 191 193 309 219 189 153 142 129 135 134 136 143 146 139 143 139 134 136 143 147 150 148 148 157 159 160 143 152 172
147 151 156 150 150 141 159 200 217 15 27 46 74 83 84 91 118 137 135 135 140 108 95 170 77 37 162 183 115 145 138 147 141 133 133 132 138 134 131 130 130 137 134 137 141 140 142 146 149 152 155 163 172 188
140 153 162 172 182 215 122 70 75 71 74 71 89 89 90 96 86 91 98 104 77 51 82 84 84 65 75 92 138 143 137 143 139 141 138 132 130 127 127 130 133 135 134 134 137 136 140 147 156 166 169 179 196 242
162 168 177 217 324 51 39 36 100 107 79 112 80 90 82 65 58 43 69 61 58 39 52 107 108 99 98 106 122 140 144 143 136 131 129 129 128 128 129 131 132 133 134 142 140 139 142 151 166 170 179 211 261 284
164 180 185 143 83 61 23 22 57 62 85 86 106 87 84 72 31 51 71 60 64 88 112 115 114 119 122 124 127 135 143 140 131 127 127 125 125 126 127 130 133 130 127 129 142 145 159 164 181 204 241 281 292 300
158 117 75 62 64 101 85 39 49 78 98 112 89 71 64 76 54 60 69 66 62 130 140 140 132 118 116 124 117 119 125 136 126 122 124 124 120 119 121 122 124 128 133 133 141 157 167 180 214 262 292 302 304 306
83 16 30 54 49 88 78 60 21 67 70 98 71 89 92 86 73 59 68 24 124 137 141 132 126 121 115 118 114 112 118 124 124 118 118 121 122 121 121 127 134 133 144 155 158 167 188 231 276 294 299 301 303 303
66 11 25 51 71 88 99 99 97 111 80 62 58 97 106 94 104 91 61 74 88 132 131 126 119 110 103 109 113 111 111 117 117 112 119 131 139 144 145 140 134 133 146 152 160 202 271 289 295 297 298 300 303 304
76 65 53 9 105 105 86 93 95 89 94 87 119 106 126 101 85 74 73 82 93 121 127 129 128 122 115 115 114 118 124 130 131 131 138 136 134 140 140 135 151 141 155 245 297 297 296 297 298 300 301 302 304 303
53 74 99 55 81 81 81 81 78 85 64 108 92 50 46 32 68 54 103 115 118 130 132 138 143 143 140 137 137 140 140 139 135 134 132 127 124 126 127 130 143 204 303 309 308 307 306 305 303 302 301 301 303 302
70 96 87 45 68 61 29 23 61 56 355 46 108 86 90 64 74 137 138 135 139 141 135 131 130 135 132 131 128 124 124 126 127 126 124 116 116 103 91 65 17 341 328 322 318 315 312 309 307 305 304 303 305 306
92 108 94 51 42 59 32 48 89 81 59 94 103 110 101 75 72 118 127 132 138 138 138 138 140 141 136 139 137 136 135 136 138 130 128 131 125 90 39 4 348 337 331 326 321 315 311 310 309 306 303 301 299 298
114 101 76 76 84 112 100 86 82 86 97 104 116 116 121 111 88 99 101 119 127 128 129 128 129 131 133 132 135 137 131 130 128 124 117 108 88 39 5 348 340 335 330 326 322 318 315 313 311 310 308 305 303 300
65 114 124 109 129 144 110 84 81 94 96 103 110 116 122 103 83 90 94 114 128 124 128 136 140 143 146 143 142 139 137 132 124 112 91 57 24 3 351 344 339 336 333 327 323 319 316 313 311 309 306 305 303 302
99 104 106 114 136 133 142 118 100 101 95 79 62 76 79 69 93 133 106 120 133 141 147 144 140 140 140 139 137 134 130 124 112 89 53 23 4 352 347 345 341 336 333 331 328 324 320 315 312 310 307 304 302 301
Height
1401 1399 1398 1398 1398 1398 1399 1402 1406 1411 1415 1419 1423 1428 1433 1438 1442 1444 1446 1449 1452 1449 1446 1448 1450 1453 1453 1454 1459 1462 1473 1474 1478 1483 1488 1488 1483 1477 1480 1482 1491 1497 1511 1514 1515 1515 1509 1484 1488 1495 1492 1494 1495 1501
1388 1387 1386 1385 1385 1386 1387 1389 1394 1399 1404 1409 1414 1419 1425 1430 1435 1440 1440 1444 1447 1449 1442 1443 1445 1449 1450 1453 1457 1457 1460 1465 1468 1474 1476 1475 1476 1471 1473 1476 1481 1489 1487 1491 1494 1488 1480 1478 1484 1490 1493 1495 1499 1503
1375 1373 1372 1372 1372 1373 1375 1378 1382 1387 1393 1399 1405 1411 1417 1423 1427 1432 1434 1440 1443 1444 1442 1437 1434 1440 1445 1447 1449 1451 1456 1459 1463 1467 1469 1467 1468 1466 1470 1467 1471 1477 1479 1477 1483 1478 1477 1480 1483 1488 1492 1495 1498 1502
1360 1359 1358 1358 1359 1359 1362 1366 1369 1373 1381 1387 1396 1402 1410 1416 1421 1426 1428 1434 1438 1440 1433 1425 1431 1433 1440 1444 1447 1451 1454 1456 1461 1464 1465 1466 1466 1460 1461 1457 1458 1464 1470 1473 1474 1473 1475 1478 1481 1485 1489 1494 1497 1500
1344 1343 1344 1344 1344 1346 1348 1354 1359 1364 1370 1378 1387 1395 1403 1410 1415 1420 1422 1426 1431 1437 1424 1421 1426 1430 1435 1441 1443 1447 1450 1453 1456 1459 1462 1464 1463 1462 1459 1459 1455 1454 1460 1466 1466 1470 1472 1475 1479 1482 1485 1490 1494 1498
1328 1327 1328 1329 1330 1332 1336 1342 1348 1354 1361 1370 1380 1389 1397 1403 1410 1416 1417 1418 1422 1427 1431 1416 1415 1425 1429 1435 1441 1444 1448 1450 1454 1457 1459 1458 1459 1460 1461 1456 1454 1454 1455 1459 1462 1466 1468 1471 1475 1478 1481 1485 1490 1495
1310 1310 1311 1313 1316 1318 1324 1331 1337 1345 1353 1364 1374 1384 1391 1398 1403 1405 1409 1410 1412 1422 1426 1410 1408 1417 1425 1432 1438 1443 1445 1447 1451 1455 1455 1456 1454 1456 1457 1450 1446 1449 1453 1456 1460 1464 1466 1469 1471 1475 1478 1482 1485 1490
1289 1291 1294 1297 1299 1306 1313 1320 1328 1336 1347 1360 1371 1380 1387 1394 1399 1401 1403 1405 1409 1414 1416 1399 1396 1410 1419 1425 1433 1438 1442 1447 1450 1452 1453 1452 1452 1453 1450 1446 1447 1448 1450 1452 1454 1459 1462 1465 1469 1472 1476 1478 1481 1487
1267 1270 1276 1282 1287 1297 1305 1311 1317 1328 1345 1358 1369 1379 1386 1388 1389 1388 1396 1401 1403 1408 1399 1390 1384 1394 1411 1419 1428 1436 1439 1445 1445 1446 1447 1448 1444 1437 1436 1440 1441 1444 1446 1448 1452 1454 1458 1461 1465 1469 1473 1476 1480 1485
1247 1251 1256 1266 1278 1289 1298 1309 1320 1331 1344 1357 1369 1373 1374 1375 1382 1387 1392 1393 1393 1392 1395 1379 1374 1385 1399 1411 1424 1431 1433 1435 1439 1439 1441 1437 1427 1430 1431 1434 1437 1439 1441 1443 1445 1449 1452 1456 1460 1464 1468 1474 1478 1483
1231 1238 1245 1254 1268 1282 1294 1307 1319 1332 1345 1354 1359 1363 1367 1371 1380 1384 1379 1377 1374 1372 1375 1373 1366 1375 1397 1402 1415 1424 1429 1431 1432 1427 1432 1422 1413 1418 1426 1427 1430 1433 1435 1436 1439 1443 1448 1453 1458 1461 1466 1471 1476 1480
1213 1226 1232 1248 1265 1277 1291 1305 1317 1328 1335 1343 1352 1358 1364 1365 1368 1369 1362 1356 1355 1353 1358 1362 1366 1373 1390 1404 1411 1419 1420 1422 1418 1416 1422 1406 1402 1405 1408 1410 1416 1424 1429 1432 1435 1439 1443 1448 1454 1458 1463 1468 1473 1475
1210 1219 1236 1252 1264 1276 1290 1302 1313 1326 1337 1347 1352 1354 1357 1349 1349 1345 1331 1338 1336 1341 1344 1353 1368 1374 1392 1402 1407 1412 1412 1413 1412 1416 1407 1394 1396 1397 1399 1401 1407 1415 1422 1428 1432 1436 1440 1445 1451 1455 1460 1463 1467 1473
1225 1236 1247 1257 1268 1281 1294 1306 1317 1329 1338 1342 1345 1343 1342 1326 1322 1322 1315 1324 1322 1330 1340 1351 1359 1369 1383 1393 1402 1403 1402 1403 1406 1402 1388 1389 1389 1391 1394 1398 1401 1407 1415 1423 1428 1433 1437 1442 1446 1451 1457 1461 1466 1472
1243 1250 1258 1268 1278 1288 1299 1309 1320 1330 1335 1338 1338 1334 1317 1307 1308 1307 1308 1316 1317 1315 1331 1348 1358 1369 1380 1391 1391 1392 1396 1395 1385 1376 1378 1382 1384 1388 1392 1396 1399 1403 1410 1419 1424 1428 1434 1439 1444 1449 1455 1460 1465 1470
1255 1262 1269 1276 1285 1295 1305 1316 1324 1328 1329 1331 1329 1317 1301 1301 1300 1304 1307 1314 1315 1319 1334 1342 1358 1372 1377 1379 1382 1385 1384 1377 1369 1372 1375 1378 1382 1388 1392 1395 1398 1403 1410 1416 1421 1427 1433 1437 1443 1449 1454 1459 1464 1467
1266 1270 1275 1282 1292 1302 1310 1317 1324 1328 1327 1322 1311 1308 1304 1294 1298 1303 1306 1309 1317 1323 1335 1344 1353 1361 1363 1369 1369 1367 1366 1362 1364 1369 1374 1378 1382 1387 1392 1396 1400 1404 1409 1415 1421 1428 1433 1439 1445 1450 1455 1459 1462 1464
1273 1278 1283 1288 1297 1308 1315 1318 1320 1322 1318 1306 1295 1293 1296 1297 1303 1309 1312 1317 1320 1326 1331 1340 1345 1349 1355 1356 1355 1358 1363 1366 1369 1372 1376 1381 1385 1389 1393 1397 1402 1404 1409 1416 1423 1429 1435 1441 1447 1452 1455 1457 1459 1461
1277 1283 1288 1295 1300 1305 1311 1317 1318 1310 1300 1294 1293 1297 1301 1304 1307 1310 1315 1321 1327 1333 1337 1342 1347 1346 1347 1349 1351 1352 1358 1365 1369 1375 1380 1384 1386 1389 1393 1398 1403 1409 1414 1420 1426 1432 1438 1445 1449 1452 1454 1456 1459 1460
1286 1292 1297 1304 1309 1312 1316 1316 1314 1307 1303 1306 1306 1308 1308 1311 1316 1320 1326 1330 1331 1338 1343 1343 1344 1346 1349 1353 1352 1354 1360 1364 1367 1376 1383 1388 1390 1393 1398 1402 1407 1412 1420 1428 1432 1435 1440 1447 1450 1451 1453 1454 1456 1457
1298 1303 1306 1305 1306 1305 1305 1304 1308 1312 1314 1317 1318 1316 1320 1323 1326 1329 1334 1337 1341 1346 1348 1350 1352 1353 1354 1355 1357 1358 1363 1367 1371 1376 1382 1389 1395 1399 1403 1409 1413 1419 1424 1428 1432 1436 1442 1447 1448 1449 1450 1451 1453 1454
1302 1307 1309 1309 1308 1307 1308 1310 1313 1315 1319 1321 1320 1321 1325 1330 1334 1337 1339 1342 1349 1352 1353 1355 1356 1357 1359 1361 1362 1363 1367 1372 1377 1382 1389 1394 1399 1403 1407 1413 1418 1424 1428 1430 1433 1438 1443 1446 1447 1448 1448 1450 1451 1451
1305 1306 1308 1308 1309 1312 1318 1315 1315 1316 1320 1324 1326 1330 1335 1338 1340 1341 1346 1350 1354 1355 1356 1358 1359 1360 1363 1365 1365 1369 1373 1377 1382 1388 1393 1399 1404 1409 1413 1417 1422 1425 1428 1432 1435 1438 1441 1443 1445 1446 1446 1447 1447 1447
1307 1307 1308 1309 1312 1318 1321 1321 1321 1322 1324 1325 1326 1331 1336 1341 1345 1346 1350 1355 1357 1357 1359 1362 1364 1365 1368 1369 1372 1376 1379 1383 1388 1394 1399 1402 1407 1412 1417 1421 1425 1427 1430 1432 1435 1437 1440 1441 1443 1444 1443 1444 1444 1443
1305 1312 1312 1313 1314 1316 1319 1322 1323 1322 1327 1327 1332 1337 1343 1344 1346 1350 1354 1360 1359 1361 1363 1365 1366 1369 1371 1375 1379 1382 1386 1389 1392 1397 1404 1407 1411 1416 1420 1423 1426 1428 1430 1432 1434 1437 1438 1440 1440 1440 1440 1440 1439 1438
1313 1318 1317 1317 1318 1318 1321 1325 1326 1328 1332 1336 1339 1342 1344 1346 1349 1354 1360 1362 1362 1365 1367 1369 1370 1373 1377 1381 1384 1388 1393 1396 1399 1403 1409 1413 1415 1418 1421 1423 1426 1429 1430 1432 1433 1435 1436 1436 1436 1436 1436 1436 1435 1433
1317 1320 1321 1320 1319 1320 1324 1326 1329 1333 1336 1340 1343 1344 1345 1347 1354 1366 1367 1367 1367 1369 1371 1373 1375 1377 1381 1385 1390 1394 1398 1401 1404 1406 1411 1414 1417 1420 1423 1425 1426 1428 1430 1431 1432 1432 1432 1432 1432 1431 1431 1430 1429 1427
1322 1322 1323 1324 1322 1325 1327 1331 1333 1337 1339 1340 1344 1348 1351 1356 1364 1370 1370 1371 1370 1371 1373 1376 1379 1382 1385 1390 1393 1397 1401 1404 1407 1410 1413 1416 1419 1422 1424 1425 1426 1427 1428 1428 1428 1428 1428 1428 1427 1426 1425 1423 1422 1421
1324 1325 1327 1330 1330 1334 1339 1339 1340 1344 1346 1345 1348 1355 1364 1369 1370 1371 1373 1374 1374 1375 1376 1379 1384 1387 1390 1394 1398 1402 1405 1409 1411 1413 1415 1418 1421 1423 1424 1425 1425 1426 1426 1426 1425 1424 1423 1422 1421 1420 1418 1416 1414 1412
1328 1328 1331 1336 1338 1344 1349 1347 1349 1350 1349 1349 1354 1364 1369 1372 1373 1374 1376 1377 1378 1379 1381 1383 1387 1391 1394 1398 1401 1405 1408 1410 1413 1415 1417 1419 1421 1423 1423 1423 1423 1423 1422 1421 1421 1420 1418 1416 1415 1413 1411 1409 1407 1404
1328 1329 1333 1340 1348 1352 1352 1353 1352 1353 1354 1356 1360 1363 1369 1373 1377 1378 1379 1382 1383 1384 1386 1389 1392 1396 1399 1402 1404 1407 1409 1413 1415 1416 1418 1419 1421 1421 1422 1421 1421 1420 1419 1417 1416 1414 1412 1410 1408 1405 1403 1400 1398 1396
1329 1330 1336 1343 1350 1353 1353 1355 1358 1361 1363 1364 1367 1370 1374 1376 1381 1385 1385 1387 1387 1388 1391 1393 1395 1398 1402 1404 1407 1409 1412 1414 1416 1417 1418 1419 1420 1420 1420 1419 1418 1417 1415 1413 1410 1408 1405 1403 1400 1397 1394 1391 1388 1386
1332 1335 1339 1344 1350 1351 1353 1354 1360 1366 1367 1369 1371 1373 1375 1378 1384 1389 1389 1389 1391 1392 1393 1395 1398 1401 1404 1407 1409 1411 1413 1415 1417 1418 1418 1419 1419 1418 1417 1416 1414 1412 1409 1407 1404 1402 1399 1396 1393 1389 1386 1382 1379 1375